This is the latest recevied weather packets stored in our database for station/object WA9SDJ-13. If no packets are shown the sender has not sent any weather packets the latest 10 day(s).
| Time | Temp. | Humidity | Pressure | Rain* | Wind** | Luminosity | Snow |
|---|---|---|---|---|---|---|---|
| 1778279882 | 14.44° C | 86% | 1009.2 hPa | 2.29 mm | - | 28 W/m² | - |
| 1778279821 | 14.44° C | 86% | 1009.2 hPa | 2.29 mm | - | 26 W/m² | - |
| 1778279759 | 14.44° C | 86% | 1009.2 hPa | 2.29 mm | - | 28 W/m² | - |
| 1778279698 | 14.44° C | 86% | 1009.2 hPa | 2.29 mm | - | 28 W/m² | - |
| 1778279636 | 14.44° C | 86% | 1009.2 hPa | 2.03 mm | - | 32 W/m² | - |
| 1778279575 | 14.44° C | 86% | 1009.2 hPa | 2.03 mm | - | 33 W/m² | - |
| 1778279510 | 14.44° C | 86% | 1009.2 hPa | 2.03 mm | - | 33 W/m² | - |
| 1778279449 | 14.44° C | 86% | 1009.2 hPa | 2.03 mm | - | 33 W/m² | - |
| 1778279388 | 14.44° C | 86% | 1009.2 hPa | 1.78 mm | - | 32 W/m² | - |
| 1778279326 | 14.44° C | 86% | 1009.2 hPa | 2.03 mm | - | 26 W/m² | - |
| 1778279263 | 14.44° C | 86% | 1009.4 hPa | 1.78 mm | - | 25 W/m² | - |
| 1778279200 | 14.44° C | 86% | 1009.3 hPa | 1.52 mm | - | 25 W/m² | - |
| 1778279137 | 14.44° C | 86% | 1009.3 hPa | 1.52 mm | - | 26 W/m² | - |
| 1778279076 | 14.44° C | 86% | 1009.2 hPa | 1.27 mm | - | 26 W/m² | - |
| 1778279014 | 14.44° C | 86% | 1009.3 hPa | 1.27 mm | - | 25 W/m² | - |
| 1778278952 | 14.44° C | 86% | 1009.2 hPa | 1.02 mm | - | 21 W/m² | - |
| 1778278891 | 14.44° C | 86% | 1009.1 hPa | 1.02 mm | - | 19 W/m² | - |
| 1778278831 | 14.44° C | 86% | 1009.1 hPa | 1.02 mm | - | 18 W/m² | - |
| 1778278771 | 14.44° C | 86% | 1009.1 hPa | 1.02 mm | - | 19 W/m² | - |
| 1778278712 | 14.44° C | 86% | 1009 hPa | 1.02 mm | - | 23 W/m² | - |
| 1778278651 | 14.44° C | 87% | 1008.9 hPa | 0.76 mm | - | 26 W/m² | - |
| 1778278590 | 14.44° C | 87% | 1009 hPa | 1.02 mm | - | 26 W/m² | - |
| 1778278531 | 14.44° C | 87% | 1009 hPa | 1.02 mm | - | 23 W/m² | - |
| 1778278471 | 14.44° C | 86% | 1009 hPa | 0.76 mm | - | 19 W/m² | - |
| 1778278411 | 14.44° C | 86% | 1008.9 hPa | 0.76 mm | - | 19 W/m² | - |
* Rain latest hour (hover to see other rain measurements)
** Current wind speed in m/s (hover to see current wind gust speed)